SPIRALE B

Last updated on Jan. 26, 2021, 8:20 a.m. UTC

1 33752U 09008D   21025.67075707  .00001892  00000-0  57364-3 0  9994
2 33752   2.1571  27.8610 6901513 329.1923   4.1089  2.76396874110899
UTC
Height (km)
Latitude
Longitude
Inclination
Orbital Period
UTC large
Height (km)
Speed (km/s)
/
Latitude / Longitude
Inclination (degrees)
Orbital Period (minutes)
Azimuth
Elevation
Range (km)
Doppler Factor
iOS Compass Heading
iOS Angle

Next 30 passes for location: Hong Kong

Rise time Rise Azimuth (degrees) Set time Set Azimuth (degrees) Duration Max altitude (degrees)

No matching passes for this satellites